GW1268 Weather Reports


Display with metric or nautical units.
time (UTC)temp
F
wind
direction
speed
MPH
gust
MPH
rain 1hr
in
rain 24hr
in
rain mn
in
humidity
%
barometer
mb
20260510044205 64 90 1.0 1.0 0.00 0.00 0.00 71 1035.0
20260510043205 64 90 1.0 2.0 0.00 0.00 0.00 71 1035.0
20260510042202 64 90 1.0 2.0 0.00 0.00 0.00 71 1035.0
20260510041159 64 90 1.0 2.0 0.00 0.00 0.00 70 1035.2
20260510040159 64 90 1.0 2.0 0.00 0.00 0.00 70 1035.3
20260510035156 64 59 1.0 2.0 0.00 0.00 0.00 70 1035.2
20260510034155 65 67 1.0 2.0 0.00 0.00 0.00 71 1035.1
20260510033152 65 67 1.0 2.0 0.00 0.00 0.00 71 1035.3
20260510031149 65 90 1.0 2.0 0.00 0.00 0.00 73 1035.3
20260510030147 65 90 1.0 2.0 0.00 0.00 0.00 73 1035.4
20260510025145 65 59 1.0 2.0 0.00 0.00 0.00 74 1035.6
20260510024142 65 90 1.0 2.0 0.00 0.00 0.00 75 1035.8
20260510023141 65 90 1.0 2.0 0.00 0.00 0.00 75 1035.9
20260510022138 66 90 1.0 2.0 0.00 0.00 0.00 76 1036.0
20260510020134 63 90 1.0 2.0 0.00 0.00 0.00 78 1036.3
20260510015132 62 60 1.0 2.0 0.00 0.00 0.00 79 1036.6
20260510014131 62 51 1.0 2.0 0.00 0.00 0.00 79 1036.6
20260510013127 61 90 1.0 1.0 0.00 0.00 0.00 79 1036.7
20260510012128 61 90 1.0 2.0 0.00 0.00 0.00 80 1036.8
20260510010122 60 90 1.0 2.0 0.00 0.00 0.00 81 1036.7
20260510005120 60 90 1.0 2.0 0.00 0.00 0.00 81 1036.9
20260510004118 60 90 1.0 2.0 0.00 0.00 0.00 81 1036.9
20260510002114 60 90 1.0 2.0 0.00 0.00 0.00 82 1036.7
20260510001111 59 90 1.0 2.0 0.00 0.00 0.00 82 1036.6
20260510000110 59 90 1.0 2.0 0.00 0.00 0.00 82 1036.7
20260509235108 59 90 1.0 2.0 0.00 0.00 0.00 83 1036.5
20260509234107 58 90 1.0 2.0 0.00 0.00 0.00 83 1036.5
20260509232102 58 90 1.0 2.0 0.00 0.00 0.00 83 1036.6
20260509231100 58 90 1.0 2.0 0.00 0.00 0.00 83 1036.5
20260509230059 57 90 1.0 2.0 0.00 0.00 0.00 83 1036.3
20260509225056 57 90 1.0 2.0 0.00 0.00 0.00 83 1036.1
20260509224055 57 90 1.0 1.0 0.00 0.00 0.00 83 1036.1
20260509222052 57 90 1.0 1.0 0.00 0.00 0.00 83 1036.0
20260509221049 57 90 1.0 1.0 0.00 0.00 0.00 83 1035.9
20260509220046 57 90 1.0 1.0 0.00 0.00 0.00 83 1035.7
20260509213042 57 90 1.0 2.0 0.00 0.00 0.00 84 1035.3
20260509212039 57 90 1.0 2.0 0.00 0.00 0.00 84 1035.1
20260509211037 57 90 1.0 1.0 0.00 0.00 0.00 84 1035.1
20260509210035 57 90 1.0 1.0 0.00 0.00 0.00 84 1035.0
20260509205033 57 90 1.0 1.0 0.00 0.00 0.00 84 1035.0
20260509204030 57 90 1.0 1.0 0.00 0.00 0.00 84 1034.8
20260509203029 57 90 1.0 2.0 0.00 0.00 0.00 84 1034.9
20260509202026 57 90 1.0 1.0 0.00 0.00 0.00 84 1034.8
20260509201024 57 90 1.0 1.0 0.00 0.00 0.00 84 1034.7
20260509200023 57 90 1.0 2.0 0.00 0.00 0.00 84 1034.8
20260509195020 57 90 1.0 1.0 0.00 0.00 0.00 84 1034.5
20260509194018 57 90 1.0 1.0 0.00 0.00 0.00 84 1034.4
20260509193015 57 90 1.0 1.0 0.00 0.00 0.00 84 1034.4
20260509191012 57 90 1.0 1.0 0.00 0.00 0.00 84 1034.2
20260509190013 57 90 1.0 1.0 0.00 0.00 0.00 84 1034.1
20260509185008 57 90 1.0 2.0 0.00 0.01 0.00 84 1034.0
20260509184007 56 90 1.0 2.0 0.00 0.01 0.00 84 1033.9
20260509183005 56 90 1.0 1.0 0.00 0.01 0.00 84 1033.8
20260509182002 56 90 1.0 1.0 0.00 0.01 0.00 84 1033.6
20260509181000 56 90 1.0 1.0 0.00 0.01 0.00 84 1033.7
20260509175958 56 90 1.0 2.0 0.00 0.01 0.00 84 1033.6
20260509174956 56 90 1.0 1.0 0.00 0.01 0.00 84 1033.7
20260509172952 56 90 1.0 1.0 0.00 0.01 0.00 84 1033.6
20260509171951 56 90 1.0 1.0 0.00 0.01 0.00 84 1033.7
20260509165945 57 90 1.0 2.0 0.00 0.01 0.00 84 1033.9
20260509164946 57 90 1.0 2.0 0.00 0.02 0.00 84 1033.9
20260509163942 57 90 1.0 2.0 0.00 0.02 0.00 83 1033.7
20260509162940 57 90 1.0 1.0 0.00 0.02 0.00 83 1033.7
20260509161938 57 90 1.0 2.0 0.00 0.02 0.00 83 1033.8
20260509160938 58 90 1.0 2.0 0.00 0.02 0.00 83 1033.9
20260509155934 58 90 1.0 1.0 0.00 0.02 0.00 83 1033.9
20260509154932 58 90 1.0 1.0 0.00 0.02 0.00 83 1033.8
20260509153930 58 90 1.0 1.0 0.00 0.02 0.00 83 1033.9
20260509152929 58 90 1.0 2.0 0.00 0.02 0.00 83 1034.1
20260509151927 58 90 1.0 1.0 0.00 0.02 0.00 83 1034.0
20260509145923 58 90 1.0 1.0 0.00 0.02 0.00 83 1033.9
20260509144922 58 90 1.0 1.0 0.00 0.02 0.00 83 1033.9
20260509143919 58 90 1.0 1.0 0.00 0.02 0.00 83 1033.9
20260509141913 58 90 1.0 2.0 0.00 0.02 0.00 83 1034.1
20260509140915 58 90 1.0 2.0 0.00 0.02 0.00 83 1033.8
20260509135910 58 90 1.0 2.0 0.00 0.02 0.02 83 1033.7
20260509134908 58 90 1.0 1.0 0.00 0.02 0.02 82 1034.1
20260509133907 58 90 1.0 2.0 0.00 0.02 0.02 82 1034.1
20260509132903 59 90 1.0 1.0 0.00 0.02 0.02 82 1034.0
20260509131902 59 90 1.0 2.0 0.00 0.02 0.02 82 1033.9
20260509130901 59 90 1.0 2.0 0.00 0.02 0.02 82 1033.9
20260509124857 59 90 1.0 2.0 0.00 0.02 0.02 82 1034.0
20260509123853 59 90 1.0 2.0 0.00 0.02 0.02 82 1033.8
20260509122853 59 90 1.0 2.0 0.00 0.02 0.02 82 1034.0
20260509121850 59 90 1.0 1.0 0.00 0.02 0.02 82 1034.0
20260509120848 59 90 1.0 2.0 0.00 0.02 0.02 82 1034.0
20260509115846 59 90 1.0 1.0 0.00 0.02 0.02 82 1033.9
20260509114845 59 90 1.0 2.0 0.00 0.02 0.02 82 1034.0
20260509113841 59 90 1.0 1.0 0.00 0.02 0.02 82 1034.0
20260509112840 59 90 1.0 2.0 0.00 0.02 0.02 82 1033.8
20260509111838 59 90 1.0 2.0 0.00 0.02 0.02 82 1033.8
20260509110837 59 90 1.0 2.0 0.00 0.02 0.02 82 1033.6
20260509105836 59 90 1.0 1.0 0.00 0.02 0.02 82 1033.7
20260509103830 59 90 1.0 2.0 0.00 0.02 0.02 82 1033.6
20260509101827 59 90 1.0 2.0 0.00 0.02 0.02 82 1033.7
20260509095822 59 90 1.0 2.0 0.00 0.02 0.02 82 1033.7
20260509094820 59 90 1.0 2.0 0.00 0.02 0.02 82 1033.6
20260509093819 58 90 1.0 2.0 0.00 0.02 0.02 81 1033.6
20260509092816 58 90 1.0 1.0 0.00 0.02 0.02 81 1033.4
20260509091814 58 90 1.0 1.0 0.00 0.02 0.02 81 1033.3
20260509090814 58 90 1.0 2.0 0.00 0.02 0.02 81 1033.6
20260509082804 59 90 1.0 2.0 0.00 0.02 0.02 81 1033.0
20260509081802 59 90 1.0 2.0 0.00 0.02 0.02 80 1032.9
20260509080801 60 90 1.0 2.0 0.00 0.02 0.02 80 1032.6
20260509075757 60 90 1.0 2.0 0.00 0.02 0.02 80 1032.5
20260509074757 60 90 1.0 2.0 0.00 0.02 0.02 80 1032.4
20260509072752 60 90 1.0 2.0 0.00 0.02 0.02 80 1032.2
20260509071751 61 90 1.0 3.0 0.00 0.02 0.02 79 1032.2
20260509070750 61 90 1.0 3.0 0.00 0.03 0.02 79 1032.2
20260509063744 62 90 1.0 2.0 0.00 0.03 0.02 79 1032.2
20260509062740 63 90 1.0 3.0 0.00 0.03 0.02 79 1032.1
20260509060736 64 90 1.0 2.0 0.00 0.03 0.02 79 1032.1
20260509055736 64 90 1.0 2.0 0.00 0.03 0.02 79 1032.1
20260509054731 64 90 1.0 3.0 0.00 0.03 0.02 79 1032.0
20260509053730 64 90 1.0 2.0 0.00 0.03 0.02 79 1031.7
20260509050725 64 90 1.0 2.0 0.00 0.03 0.02 80 1031.8
20260509045723 64 90 1.0 2.0 0.00 0.03 0.02 80 1031.8